Location: Poughquag
(41.6090°N, 73.6820°W)
Time: 10:36:38
(UTC-04:00)

S-56A Canister/Altair - Pass Details

Date: 31 May 2020
Orbit: 633 x 2499 km, 38.9° (Epoch: 06 July)

Event Time Altitude Azimuth Distance (km) Brightness Sun altitude
Rises 07:12:34 0° 260° (W) 3,602 10.3 18.0°
Reaches altitude 10° 07:14:46 10° 259° (W) 2,836 9.9 18.4°
Maximum altitude 07:21:44 75° 175° (S) 1,414 9.2 19.7°
Drops below altitude 10° 07:32:35 10° 93° (E) 4,283 13.1 21.7°
Sets 07:36:40 0° 92° (E) 5,545 13.3 22.4°
